User: anonymous   Login
Location: Lower Kingswood
(51.2667°N, 0.2167°W)
Time: 17:44:52
(UTC+00:00)
Language:

Cosmos 1867 - Orbit

View from above orbital plane
View from above orbital plane
View from above satellite
View from above satellite

Ground track
Ground track

The orbit data is extracted from the following two-line orbital elements,

1 18187U 87060A   24061.79228004  .00000015  00000-0  43209-4 0  9999
2 18187  65.0097 212.8472 0019800 278.4256  81.4584 14.31273064914311
Epoch (UTC): 01 March 2024 19:00:52
Eccentricity: 0.0019800
inclination: 65.0097°
perigee height: 773 km
apogee height: 801 km
right ascension of ascending node: 212.8472°
argument of perigee: 278.4256°
revolutions per day: 14.31273064
mean anomaly at epoch: 81.4584°
orbit number at epoch: 91431

The dashed part of the orbit path shows where the satellite is in the earth's shadow,  

DLR